User: anonymous   Login
Location: South Tamworth Observatory
(43.8246°N, 71.3026°W)
Time: 10:06:21
(UTC-05:00)
Language:

Cosmos 1844 - Orbit

View from above orbital plane
View from above orbital plane
View from above satellite
View from above satellite

Ground track
Ground track

The orbit data is extracted from the following two-line orbital elements,

1 17973U 87041A   17327.36598675 -.00000052  00000-0 -16319-5 0  9990
2 17973  70.8997 298.0877 0033579 249.1692 110.5832 14.14066715575642
Epoch (UTC): 23 November 2017 08:47:01
Eccentricity: 0.0033579
inclination: 70.8997°
perigee height: 821 km
apogee height: 870 km
right ascension of ascending node: 298.0877°
argument of perigee: 249.1692°
revolutions per day: 14.14066715
mean anomaly at epoch: 110.5832°
orbit number at epoch: 57564

The dashed part of the orbit path shows where the satellite is in the earth's shadow,  

DLR